RYR59DR EGSS-EPSC

Flight info

Callsign RYR59DR
Flight time 1h 28m
Altitude 37000
Route CLN P44 SOMVA DCT MAVAS DCT PETIK DCT ANDIK DCT OMEPA DCT DENIX DCT NEBUN DCT VIBIS L619 TABOK L733 BODLA
Aircraft B38M/M-SADE3FGIJ1LRWYZ/SB1

Departure

Time 2026-04-24 06:53
Airport London Stansted Airport (EGSS)

Arrival

Time 2026-04-24 08:21
Airport Solidarity Szczecin–Goleniów Airport (EPSC)
Time Latitude Longitude Altitude Speed Heading
2026-04-24 06:22 51.89128 0.25521 355 ft 0 kts 55°
2026-04-24 06:34 51.89127 0.25519 355 ft 2 kts 55°
2026-04-24 06:34 51.89114 0.25490 364 ft 2 kts 54°
2026-04-24 06:35 51.89100 0.25471 362 ft 4 kts 345°
2026-04-24 06:35 51.89082 0.25494 358 ft 4 kts 313°
2026-04-24 06:35 51.89070 0.25514 363 ft 0 kts 313°
2026-04-24 06:37 51.89072 0.25511 361 ft 1 kts 313°
2026-04-24 06:37 51.89084 0.25491 358 ft 4 kts 313°
2026-04-24 06:38 51.89106 0.25453 361 ft 6 kts 313°
2026-04-24 06:38 51.89138 0.25397 359 ft 7 kts 313°
2026-04-24 06:38 51.89144 0.25386 360 ft 0 kts 313°
2026-04-24 06:39 51.89145 0.25385 359 ft 1 kts 313°
2026-04-24 06:39 51.89153 0.25370 359 ft 3 kts 313°
2026-04-24 06:39 51.89171 0.25334 355 ft 5 kts 300°
2026-04-24 06:39 51.89169 0.25273 355 ft 6 kts 239°
2026-04-24 06:40 51.89133 0.25215 355 ft 8 kts 223°
2026-04-24 06:40 51.89086 0.25143 359 ft 10 kts 223°
2026-04-24 06:40 51.89028 0.25056 360 ft 12 kts 223°
2026-04-24 06:40 51.88965 0.24975 356 ft 10 kts 195°
2026-04-24 06:41 51.88906 0.25027 359 ft 11 kts 130°
2026-04-24 06:41 51.88862 0.25116 357 ft 8 kts 93°
2026-04-24 06:41 51.88900 0.25137 360 ft 7 kts 330°
2026-04-24 06:41 51.88928 0.25093 361 ft 0 kts 313°
2026-04-24 06:46 51.88931 0.25087 362 ft 2 kts 313°
2026-04-24 06:46 51.88944 0.25064 362 ft 4 kts 313°
2026-04-24 06:46 51.88966 0.25020 358 ft 6 kts 296°
2026-04-24 06:46 51.88977 0.24946 355 ft 8 kts 281°
2026-04-24 06:47 51.89007 0.24862 359 ft 10 kts 310°
2026-04-24 06:47 51.89029 0.24777 358 ft 8 kts 256°
2026-04-24 06:47 51.88990 0.24701 356 ft 10 kts 223°
2026-04-24 06:47 51.88936 0.24618 355 ft 12 kts 223°
2026-04-24 06:48 51.88871 0.24521 358 ft 14 kts 223°
2026-04-24 06:48 51.88789 0.24396 349 ft 19 kts 223°
2026-04-24 06:48 51.88682 0.24239 349 ft 23 kts 223°
2026-04-24 06:48 51.88560 0.24056 344 ft 25 kts 223°
2026-04-24 06:49 51.88431 0.23864 346 ft 25 kts 223°
2026-04-24 06:49 51.88300 0.23668 352 ft 26 kts 223°
2026-04-24 06:49 51.88162 0.23459 348 ft 29 kts 223°
2026-04-24 06:49 51.88016 0.23237 340 ft 27 kts 223°
2026-04-24 06:50 51.87888 0.23048 340 ft 25 kts 222°
2026-04-24 06:50 51.87777 0.22883 346 ft 21 kts 223°
2026-04-24 06:50 51.87665 0.22714 340 ft 23 kts 223°
2026-04-24 06:50 51.87547 0.22535 332 ft 25 kts 223°
2026-04-24 06:51 51.87450 0.22389 331 ft 15 kts 223°
2026-04-24 06:51 51.87401 0.22278 327 ft 13 kts 256°
2026-04-24 06:51 51.87435 0.22140 325 ft 16 kts 313°
2026-04-24 06:51 51.87503 0.22037 324 ft 9 kts 340°
2026-04-24 06:52 51.87556 0.22064 324 ft 9 kts 30°
2026-04-24 06:52 51.87575 0.22091 324 ft 0 kts 45°
2026-04-24 06:52 51.87579 0.22097 324 ft 7 kts 45°
2026-04-24 06:53 51.87817 0.22457 331 ft 87 kts 42°
2026-04-24 06:53 51.88443 0.23392 349 ft 154 kts 43°
2026-04-24 06:53 51.89274 0.24655 1013 ft 162 kts 43°
2026-04-24 06:53 51.90092 0.25899 2035 ft 163 kts 45°
2026-04-24 06:54 51.90931 0.27170 2756 ft 168 kts 46°
2026-04-24 06:54 51.91488 0.28768 3455 ft 163 kts 78°
2026-04-24 06:54 51.91507 0.30616 4082 ft 169 kts 101°
2026-04-24 06:54 51.91121 0.32507 4541 ft 187 kts 110°
2026-04-24 06:55 51.90606 0.34568 4926 ft 208 kts 111°
2026-04-24 06:55 51.89996 0.36872 5209 ft 238 kts 112°
2026-04-24 06:55 51.89304 0.39378 5840 ft 251 kts 113°
2026-04-24 06:55 51.88560 0.42008 6496 ft 259 kts 113°
2026-04-24 06:56 51.88053 0.44826 6923 ft 264 kts 94°
2026-04-24 06:56 51.87984 0.47770 7878 ft 262 kts 91°
2026-04-24 06:56 51.88151 0.50757 8559 ft 272 kts 78°
2026-04-24 06:56 51.88498 0.53777 9416 ft 274 kts 79°
2026-04-24 06:57 51.88826 0.56852 10239 ft 280 kts 79°
2026-04-24 06:57 51.89152 0.59998 10854 ft 290 kts 80°
2026-04-24 06:57 51.89488 0.63334 11222 ft 309 kts 80°
2026-04-24 06:57 51.89829 0.66842 11721 ft 321 kts 80°
2026-04-24 06:58 51.90174 0.70426 12509 ft 324 kts 81°
2026-04-24 06:58 51.90520 0.74066 13235 ft 329 kts 81°
2026-04-24 06:58 51.90869 0.77740 14043 ft 332 kts 81°
2026-04-24 06:58 51.91225 0.81457 14688 ft 338 kts 81°
2026-04-24 06:59 51.91585 0.85246 15357 ft 341 kts 82°
2026-04-24 06:59 51.91947 0.89057 16040 ft 345 kts 82°
2026-04-24 06:59 51.92310 0.92925 16661 ft 350 kts 82°
2026-04-24 06:59 51.92675 0.96788 17304 ft 354 kts 83°
2026-04-24 07:00 51.93043 1.00743 17933 ft 357 kts 82°
2026-04-24 07:00 51.93423 1.04795 18579 ft 361 kts 82°
2026-04-24 07:00 51.93790 1.08769 19129 ft 363 kts 83°
2026-04-24 07:00 51.94167 1.12835 19660 ft 367 kts 83°
2026-04-24 07:01 51.94547 1.16948 20153 ft 371 kts 83°
2026-04-24 07:01 51.94928 1.21108 20682 ft 374 kts 83°
2026-04-24 07:01 51.95312 1.25301 21195 ft 378 kts 83°
2026-04-24 07:01 51.95697 1.29531 21709 ft 381 kts 83°
2026-04-24 07:02 51.96084 1.33801 22231 ft 384 kts 83°
2026-04-24 07:02 51.96472 1.38101 22747 ft 388 kts 83°
2026-04-24 07:02 51.96862 1.42447 23263 ft 391 kts 84°
2026-04-24 07:02 51.97253 1.46818 23767 ft 394 kts 84°
2026-04-24 07:03 51.97647 1.51240 24204 ft 398 kts 84°
2026-04-24 07:03 51.98042 1.55691 24623 ft 401 kts 84°
2026-04-24 07:03 51.98438 1.60185 25051 ft 404 kts 84°
2026-04-24 07:03 51.98836 1.64710 25474 ft 407 kts 84°
2026-04-24 07:04 51.99567 1.69164 25883 ft 414 kts 68°
2026-04-24 07:04 52.00915 1.73317 26319 ft 418 kts 65°
2026-04-24 07:04 52.02281 1.77516 26648 ft 423 kts 65°
2026-04-24 07:04 52.03669 1.81732 27076 ft 425 kts 65°
2026-04-24 07:05 52.05071 1.85970 27447 ft 428 kts 65°
2026-04-24 07:05 52.06488 1.90243 27815 ft 431 kts 65°
2026-04-24 07:05 52.07916 1.94555 28187 ft 434 kts 65°
2026-04-24 07:05 52.09353 1.98894 28507 ft 438 kts 65°
2026-04-24 07:06 52.10801 2.03280 28801 ft 442 kts 65°
2026-04-24 07:06 52.12256 2.07696 29182 ft 444 kts 65°
2026-04-24 07:06 52.13722 2.12150 29523 ft 448 kts 66°
2026-04-24 07:06 52.15194 2.16632 29850 ft 451 kts 66°
2026-04-24 07:07 52.16674 2.21143 30200 ft 453 kts 66°
2026-04-24 07:07 52.18161 2.25688 30511 ft 456 kts 66°
2026-04-24 07:07 52.21154 2.34855 31096 ft 460 kts 66°
2026-04-24 07:08 52.22660 2.39482 31394 ft 462 kts 66°
2026-04-24 07:08 52.24168 2.44123 31688 ft 464 kts 66°
2026-04-24 07:08 52.25658 2.48720 31946 ft 466 kts 66°
2026-04-24 07:08 52.27175 2.53405 32241 ft 468 kts 66°
2026-04-24 07:09 52.28692 2.58102 32528 ft 469 kts 66°
2026-04-24 07:09 52.30212 2.62832 32795 ft 471 kts 68°
2026-04-24 07:09 52.31334 2.67803 33054 ft 465 kts 80°
2026-04-24 07:09 52.32208 2.72906 33288 ft 469 kts 78°
2026-04-24 07:10 52.33126 2.78028 33558 ft 470 kts 78°
2026-04-24 07:10 52.34032 2.83162 33912 ft 470 kts 78°
2026-04-24 07:10 52.34932 2.88289 34296 ft 469 kts 79°
2026-04-24 07:10 52.35828 2.93411 34631 ft 468 kts 79°
2026-04-24 07:11 52.36718 2.98514 34900 ft 467 kts 78°
2026-04-24 07:11 52.37609 3.03641 35131 ft 469 kts 78°
2026-04-24 07:11 52.38498 3.08773 35384 ft 469 kts 78°
2026-04-24 07:11 52.39387 3.13912 35668 ft 469 kts 78°
2026-04-24 07:12 52.40412 3.18990 35923 ft 471 kts 74°
2026-04-24 07:12 52.41505 3.24046 36185 ft 470 kts 75°
2026-04-24 07:12 52.42577 3.29107 36441 ft 470 kts 75°
2026-04-24 07:12 52.43636 3.34161 36703 ft 469 kts 75°
2026-04-24 07:13 52.44691 3.39214 36946 ft 469 kts 75°
2026-04-24 07:13 52.45743 3.44274 37186 ft 469 kts 75°
2026-04-24 07:13 52.46795 3.49342 37336 ft 470 kts 75°
2026-04-24 07:13 52.47845 3.54411 37352 ft 470 kts 75°
2026-04-24 07:14 52.49938 3.64565 37356 ft 470 kts 75°
2026-04-24 07:14 52.52020 3.74712 37350 ft 469 kts 75°
2026-04-24 07:15 52.54094 3.84877 37358 ft 469 kts 75°
2026-04-24 07:15 52.56161 3.95055 37351 ft 470 kts 75°
2026-04-24 07:16 52.58218 4.05237 37342 ft 470 kts 75°
2026-04-24 07:16 52.60257 4.15376 37352 ft 470 kts 75°
2026-04-24 07:17 52.61982 4.25687 37353 ft 466 kts 82°
2026-04-24 07:17 52.63278 4.36162 37339 ft 467 kts 82°
2026-04-24 07:18 52.64547 4.46634 37337 ft 467 kts 83°
2026-04-24 07:18 52.65803 4.57107 37339 ft 467 kts 83°
2026-04-24 07:19 52.67051 4.67591 37337 ft 467 kts 83°
2026-04-24 07:19 52.68292 4.78090 37340 ft 467 kts 83°
2026-04-24 07:20 52.69317 4.86839 37336 ft 468 kts 83°
2026-04-24 07:20 52.70541 4.97359 37336 ft 468 kts 83°
2026-04-24 07:21 52.71757 5.07892 37326 ft 469 kts 83°
2026-04-24 07:21 52.72968 5.18472 37331 ft 470 kts 83°
2026-04-24 07:22 52.74323 5.29018 37322 ft 471 kts 77°
2026-04-24 07:22 52.76140 5.39406 37323 ft 472 kts 77°
2026-04-24 07:23 52.77974 5.49807 37315 ft 472 kts 77°
2026-04-24 07:23 52.79802 5.60223 37310 ft 472 kts 76°
2026-04-24 07:24 52.81624 5.70666 37306 ft 473 kts 76°
2026-04-24 07:24 52.83434 5.81100 37306 ft 473 kts 76°
2026-04-24 07:25 52.85237 5.91557 37298 ft 473 kts 77°
2026-04-24 07:25 52.87033 6.02034 37298 ft 474 kts 76°
2026-04-24 07:26 52.88823 6.12536 37291 ft 474 kts 76°
2026-04-24 07:26 52.90601 6.23036 37293 ft 474 kts 76°
2026-04-24 07:27 52.92374 6.33566 37290 ft 474 kts 76°
2026-04-24 07:27 52.94135 6.44091 37290 ft 474 kts 76°
2026-04-24 07:28 52.95887 6.54625 37284 ft 474 kts 76°
2026-04-24 07:28 52.97618 6.65096 37291 ft 474 kts 76°
2026-04-24 07:29 52.99350 6.75644 37294 ft 474 kts 76°
2026-04-24 07:29 53.01075 6.86205 37288 ft 474 kts 76°
2026-04-24 07:30 53.02790 6.96769 37285 ft 474 kts 76°
2026-04-24 07:30 53.04496 7.07351 37287 ft 474 kts 76°
2026-04-24 07:31 53.06202 7.17953 37291 ft 475 kts 75°
2026-04-24 07:31 53.07884 7.28584 37291 ft 476 kts 76°
2026-04-24 07:32 53.09568 7.39211 37272 ft 475 kts 76°
2026-04-24 07:32 53.11242 7.49859 37271 ft 476 kts 76°
2026-04-24 07:33 53.12906 7.60513 37263 ft 476 kts 76°
2026-04-24 07:33 53.14560 7.71181 37265 ft 476 kts 76°
2026-04-24 07:34 53.16199 7.81839 37256 ft 475 kts 76°
2026-04-24 07:34 53.17839 7.92515 37254 ft 475 kts 76°
2026-04-24 07:35 53.19464 8.03196 37246 ft 476 kts 76°
2026-04-24 07:35 53.21081 8.13897 37243 ft 476 kts 76°
2026-04-24 07:36 53.22689 8.24587 37238 ft 476 kts 76°
2026-04-24 07:36 53.24283 8.35295 37236 ft 475 kts 75°
2026-04-24 07:37 53.25852 8.46004 37229 ft 475 kts 77°
2026-04-24 07:37 53.26707 8.56927 37237 ft 476 kts 87°
2026-04-24 07:38 53.26351 8.67881 37172 ft 472 kts 108°
2026-04-24 07:38 53.24552 8.78332 37135 ft 472 kts 93°
2026-04-24 07:39 53.24386 8.83779 37247 ft 471 kts 96°
2026-04-24 07:39 53.24011 8.89231 37222 ft 473 kts 97°
2026-04-24 07:39 53.23285 9.00189 37223 ft 476 kts 97°
2026-04-24 07:40 53.22563 9.11153 37218 ft 475 kts 97°
2026-04-24 07:40 53.21837 9.22049 37210 ft 475 kts 97°
2026-04-24 07:41 53.21091 9.33090 37195 ft 476 kts 96°
2026-04-24 07:41 53.20344 9.43978 37193 ft 476 kts 96°
2026-04-24 07:42 53.19582 9.54950 37190 ft 476 kts 97°
2026-04-24 07:42 53.18810 9.65916 37195 ft 476 kts 97°
2026-04-24 07:43 53.18028 9.76866 37189 ft 476 kts 97°
2026-04-24 07:43 53.17236 9.87819 37181 ft 476 kts 97°
2026-04-24 07:44 53.16433 9.98777 37189 ft 476 kts 97°
2026-04-24 07:44 53.15620 10.09734 37191 ft 476 kts 97°
2026-04-24 07:45 53.14798 10.20674 37190 ft 476 kts 97°
2026-04-24 07:45 53.13960 10.31604 37156 ft 476 kts 97°
2026-04-24 07:46 53.13128 10.42549 37165 ft 476 kts 97°
2026-04-24 07:46 53.12279 10.53485 37162 ft 476 kts 97°
2026-04-24 07:47 53.11425 10.64405 37159 ft 476 kts 97°
2026-04-24 07:47 53.10561 10.75332 37167 ft 476 kts 97°
2026-04-24 07:48 53.09686 10.86257 37156 ft 476 kts 96°
2026-04-24 07:48 53.08802 10.97168 37162 ft 476 kts 97°
2026-04-24 07:49 53.07909 11.08076 37157 ft 476 kts 97°
2026-04-24 07:49 53.07006 11.18983 37155 ft 476 kts 97°
2026-04-24 07:50 53.06170 11.29895 37155 ft 476 kts 96°
2026-04-24 07:50 53.04994 11.40656 37112 ft 476 kts 91°
2026-04-24 07:51 53.04386 11.51584 37122 ft 477 kts 95°
2026-04-24 07:51 53.03545 11.62496 37159 ft 477 kts 96°
2026-04-24 07:52 53.03104 11.67924 36897 ft 471 kts 96°
2026-04-24 07:52 53.02665 11.73290 36388 ft 467 kts 96°
2026-04-24 07:52 53.02227 11.78606 35915 ft 463 kts 95°
2026-04-24 07:52 53.01788 11.83891 35420 ft 460 kts 95°
2026-04-24 07:53 53.01351 11.89128 34918 ft 458 kts 95°
2026-04-24 07:53 53.00913 11.94352 34427 ft 455 kts 95°
2026-04-24 07:53 53.00475 11.99540 33911 ft 453 kts 95°
2026-04-24 07:53 53.00035 12.04716 33371 ft 451 kts 95°
2026-04-24 07:54 52.99598 12.09843 32884 ft 447 kts 95°
2026-04-24 07:54 52.99161 12.14941 32431 ft 444 kts 95°
2026-04-24 07:54 52.98726 12.19987 31966 ft 441 kts 96°
2026-04-24 07:54 52.98293 12.25003 31492 ft 438 kts 96°
2026-04-24 07:55 52.97862 12.29975 31055 ft 435 kts 95°
2026-04-24 07:55 52.97508 12.34937 30573 ft 431 kts 89°
2026-04-24 07:55 52.97399 12.39899 30074 ft 429 kts 90°
2026-04-24 07:55 52.97255 12.44817 29591 ft 426 kts 90°
2026-04-24 07:56 52.97094 12.49708 29139 ft 422 kts 90°
2026-04-24 07:56 52.96926 12.54537 28727 ft 418 kts 90°
2026-04-24 07:56 52.96755 12.59327 28300 ft 414 kts 90°
2026-04-24 07:56 52.96584 12.64063 27885 ft 410 kts 91°
2026-04-24 07:57 52.96412 12.68765 27477 ft 407 kts 91°
2026-04-24 07:57 52.96251 12.73429 27035 ft 405 kts 90°
2026-04-24 07:57 52.96091 12.78076 26644 ft 401 kts 90°
2026-04-24 07:57 52.95920 12.82668 26273 ft 398 kts 90°
2026-04-24 07:58 52.95733 12.87239 25815 ft 396 kts 89°
2026-04-24 07:58 52.95598 12.91794 25438 ft 393 kts 90°
2026-04-24 07:58 52.95453 12.96241 25082 ft 390 kts 90°
2026-04-24 07:58 52.95295 13.00777 24704 ft 388 kts 90°
2026-04-24 07:59 52.95137 13.05225 24328 ft 385 kts 90°
2026-04-24 07:59 52.94979 13.09590 23958 ft 383 kts 91°
2026-04-24 07:59 52.94816 13.13989 23513 ft 383 kts 91°
2026-04-24 07:59 52.94652 13.18378 23103 ft 380 kts 91°
2026-04-24 08:00 52.94489 13.22729 22755 ft 376 kts 90°
2026-04-24 08:00 52.94652 13.26993 22309 ft 368 kts 72°
2026-04-24 08:00 52.95600 13.30855 21967 ft 358 kts 60°
2026-04-24 08:00 52.96662 13.34567 21637 ft 355 kts 60°
2026-04-24 08:01 52.97720 13.38240 21278 ft 351 kts 60°
2026-04-24 08:01 52.98777 13.41879 20928 ft 349 kts 60°
2026-04-24 08:01 52.99831 13.45488 20570 ft 346 kts 60°
2026-04-24 08:01 53.00878 13.49071 20221 ft 344 kts 60°
2026-04-24 08:02 53.01916 13.52626 19871 ft 342 kts 60°
2026-04-24 08:02 53.02949 13.56164 19526 ft 339 kts 59°
2026-04-24 08:02 53.03975 13.59682 19161 ft 337 kts 59°
2026-04-24 08:02 53.05009 13.63182 18772 ft 338 kts 59°
2026-04-24 08:03 53.06039 13.66674 18429 ft 335 kts 59°
2026-04-24 08:03 53.07062 13.70150 18069 ft 333 kts 59°
2026-04-24 08:03 53.08076 13.73602 17709 ft 331 kts 59°
2026-04-24 08:03 53.09080 13.77024 17365 ft 328 kts 59°
2026-04-24 08:04 53.10076 13.80423 17022 ft 325 kts 59°
2026-04-24 08:04 53.11061 13.83791 16687 ft 323 kts 59°
2026-04-24 08:04 53.12038 13.87137 16361 ft 320 kts 59°
2026-04-24 08:04 53.13006 13.90456 16044 ft 318 kts 59°
2026-04-24 08:05 53.13968 13.93758 15710 ft 316 kts 59°
2026-04-24 08:05 53.14923 13.97041 15382 ft 314 kts 59°
2026-04-24 08:05 53.15872 14.00308 15055 ft 312 kts 59°
2026-04-24 08:05 53.16814 14.03553 14744 ft 310 kts 59°
2026-04-24 08:06 53.17748 14.06780 14413 ft 309 kts 59°
2026-04-24 08:06 53.18677 14.09991 14090 ft 307 kts 59°
2026-04-24 08:06 53.19602 14.13191 13746 ft 306 kts 59°
2026-04-24 08:06 53.20212 14.15307 13511 ft 304 kts 59°
2026-04-24 08:07 53.21126 14.18477 13175 ft 302 kts 59°
2026-04-24 08:07 53.22034 14.21629 12853 ft 300 kts 59°
2026-04-24 08:07 53.22931 14.24751 12540 ft 297 kts 59°
2026-04-24 08:07 53.23820 14.27847 12227 ft 295 kts 59°
2026-04-24 08:08 53.24702 14.30924 11908 ft 293 kts 59°
2026-04-24 08:08 53.25578 14.33981 11604 ft 291 kts 59°
2026-04-24 08:08 53.26447 14.37019 11299 ft 289 kts 59°
2026-04-24 08:09 53.27975 14.43196 10668 ft 291 kts 71°
2026-04-24 08:09 53.28478 14.46457 10363 ft 289 kts 70°
2026-04-24 08:09 53.28981 14.49674 10180 ft 283 kts 70°
2026-04-24 08:09 53.29479 14.52828 9963 ft 279 kts 70°
2026-04-24 08:10 53.29975 14.55956 9618 ft 278 kts 70°
2026-04-24 08:10 53.30470 14.59080 9297 ft 277 kts 70°
2026-04-24 08:10 53.30962 14.62182 8997 ft 275 kts 70°
2026-04-24 08:10 53.31449 14.65256 8705 ft 273 kts 70°
2026-04-24 08:11 53.31930 14.68305 8416 ft 271 kts 71°
2026-04-24 08:11 53.32409 14.71338 8143 ft 268 kts 71°
2026-04-24 08:11 53.32875 14.74300 7860 ft 266 kts 71°
2026-04-24 08:11 53.33344 14.77283 7577 ft 264 kts 71°
2026-04-24 08:12 53.33809 14.80244 7296 ft 263 kts 71°
2026-04-24 08:12 53.34271 14.83196 7011 ft 261 kts 71°
2026-04-24 08:12 53.34729 14.86126 6732 ft 260 kts 71°
2026-04-24 08:12 53.35185 14.89049 6414 ft 260 kts 71°
2026-04-24 08:13 53.35641 14.91973 6086 ft 260 kts 71°
2026-04-24 08:13 53.36099 14.94915 5857 ft 255 kts 72°
2026-04-24 08:13 53.36531 14.97699 5697 ft 244 kts 71°
2026-04-24 08:13 53.36946 15.00382 5496 ft 232 kts 71°
2026-04-24 08:14 53.37342 15.02939 5296 ft 222 kts 71°
2026-04-24 08:14 53.37719 15.05379 5110 ft 211 kts 71°
2026-04-24 08:14 53.38148 15.07636 4938 ft 196 kts 55°
2026-04-24 08:14 53.39030 15.09260 4713 ft 184 kts 39°
2026-04-24 08:15 53.39951 15.10670 4524 ft 175 kts 38°
2026-04-24 08:15 53.40841 15.12013 4358 ft 172 kts 37°
2026-04-24 08:15 53.41742 15.13357 4223 ft 174 kts 37°
2026-04-24 08:15 53.42643 15.14694 4095 ft 173 kts 37°
2026-04-24 08:16 53.43642 15.15721 3905 ft 166 kts
2026-04-24 08:16 53.44760 15.15590 3718 ft 162 kts 337°
2026-04-24 08:16 53.45679 15.14505 3585 ft 164 kts 316°
2026-04-24 08:16 53.46477 15.13129 3467 ft 165 kts 316°
2026-04-24 08:17 53.47277 15.11749 3265 ft 165 kts 315°
2026-04-24 08:17 53.48055 15.10331 3066 ft 165 kts 314°
2026-04-24 08:17 53.48814 15.08894 2861 ft 164 kts 313°
2026-04-24 08:17 53.49565 15.07454 2650 ft 164 kts 313°
2026-04-24 08:18 53.50312 15.06015 2435 ft 163 kts 313°
2026-04-24 08:18 53.51051 15.04589 2227 ft 161 kts 312°
2026-04-24 08:18 53.51784 15.03172 2010 ft 160 kts 312°
2026-04-24 08:18 53.52509 15.01771 1793 ft 157 kts 313°
2026-04-24 08:19 53.53228 15.00378 1605 ft 157 kts 313°
2026-04-24 08:19 53.53907 14.99064 1381 ft 142 kts 312°
2026-04-24 08:19 53.54547 14.97838 1177 ft 138 kts 311°
2026-04-24 08:19 53.55177 14.96609 972 ft 139 kts 311°
2026-04-24 08:20 53.55808 14.95388 797 ft 138 kts 309°
2026-04-24 08:20 53.56432 14.94170 590 ft 137 kts 309°
2026-04-24 08:20 53.57061 14.92969 449 ft 135 kts 311°
2026-04-24 08:20 53.57673 14.91783 235 ft 134 kts 309°
2026-04-24 08:21 53.58234 14.90686 149 ft 100 kts 310°
2026-04-24 08:21 53.58576 14.90017 145 ft 65 kts 310°
2026-04-24 08:21 53.58839 14.89503 143 ft 46 kts 311°
2026-04-24 08:21 53.58967 14.89261 145 ft 22 kts 311°
2026-04-24 08:22 53.59030 14.89141 145 ft 10 kts 311°
2026-04-24 08:22 53.59086 14.89115 144 ft 9 kts 40°
2026-04-24 08:22 53.59138 14.89202 145 ft 6 kts 44°
2026-04-24 08:22 53.59155 14.89231 145 ft 2 kts 44°
2026-04-24 08:23 53.59166 14.89257 145 ft 4 kts 70°
2026-04-24 08:23 53.59161 14.89308 145 ft 5 kts 123°
2026-04-24 08:23 53.59133 14.89363 145 ft 7 kts 130°
2026-04-24 08:23 53.59112 14.89405 144 ft 5 kts 130°
2026-04-24 08:24 53.59111 14.89464 144 ft 5 kts 58°
2026-04-24 08:24 53.59140 14.89513 144 ft 6 kts 41°
2026-04-24 08:24 53.59151 14.89529 144 ft 0 kts 41°
2026-04-24 08:24 53.59154 14.89533 144 ft 2 kts 41°
2026-04-24 08:25 53.59161 14.89544 144 ft 0 kts 41°
2026-04-24 08:25 53.59170 14.89556 144 ft 3 kts 37°
2026-04-24 08:25 53.59194 14.89562 144 ft 4 kts 346°
2026-04-24 08:25 53.59214 14.89539 144 ft 2 kts 311°
2026-04-24 08:26 53.59218 14.89531 144 ft 0 kts 312°